星链-4067 (STARLINK-4067 )

导读

STARLINK-4067是美国SpaceX公司星链星座的一颗低轨通信卫星,于2022年5月18日发射升空,属于星链组网的量产卫星。它运行于近地轨道,搭载Ku/Ka波段相控阵通信载荷与氪霍尔推进器,具备自主避撞能力,为全球偏远地区提供低时延高速宽带互联网服务,服役寿命末期会主动离轨再入大气层销毁。

基本信息
目录编号:
52668
目录名称:
STARLINK-4067
国际标识:
2022-053N
轨道中心:
EARTH
卫星名称:
星链-4067
卫星全名:
星链-4067 (STARLINK-4067 )
卫星状态:
在轨 (已飞行1491 天)
发射日期:
2022-05-18 UTC
国别 :
美国 (US)
星等 :
--
轨道信息
数据来源 国际轨道数据 AOE轨道数据
星历时间 2026-06-17T08:36:50+0800
13小时前
查看轨道信息
2026-06-17T00:00:00+0800
21小时前
查看轨道信息
半长轴 6917.918km 6917.891km
偏心率 0.000134 0.0001393
轨道倾角 53.161° 53.161°
近地点辐角 95.027° 80.173°
升交点赤经 68.092° 69.706°
平近点角 265.088° 129.366°
近地点 538.853km 538.79km
远地点 540.709km 540.718km
周期 95.438分钟 95.438分钟
每日圈数 15.088279 15.088368
详细信息
固有亮度:
5
最大亮度:
2.5
卫星平台:
Starlink v1.5
覆盖范围:
全球
运营商:
太空探索技术公司
运营商所在国:
美国
制造商(研发单位):
太空探索技术公司
制造商所在国:
美国
使用方式:
暂无
卫星简介
星链(Starlink)计划是由太空探索技术公司(SpaceX)提出的一个巨型低轨卫星互联网星座项目,计划在2019年至2024年间在太空搭建由约1.2万颗卫星组成的“星链”网络,其中1584颗将部署在地球上空550千米处的近地轨道,并从2020年开始工作。该卫星仍在工作。
2D轨道图
3D轨道图
轨道高度分析图
轨道倾角分析图
轨道综合分析图
查看轨道综合分析图